Terug naar catalogus

CZ-6A DEB

ActiefPO
NORAD 61432·DEBRIS·🇨🇳 China

Gelanceerd Aug 6, 2024 vanaf Taiyuan Satellite Launch Center

Loading…

Volgende Passages (komende 24 uur)

TLE

VersSource: Space-Track

Epoch: Sep 12, 2026, 12:39 UTC

1 61432U 24140YZ  26255.52766583  .00005042  00000-0  37028-3 0  9993
2 61432  89.0827 264.0003 0150421 183.6621 176.3526 14.94548271111577

Volg CZ-6A DEB in realtime met AllMySat

Download on the App Store